STARLINK-2754, 48641

Orbit data source: Space-Track

STARLINK-2754, 48641 is a payload satellite owned by SpaceX/Seattle (US) in LEO that was launched on Wed, 26 May 2021 UTC via an FALCON 9 launch vehicle from the Air Force Eastern Test Range (AFETR). Payload-class satellites include a variety of spacecraft equipped with specific instruments for various scientific and technological missions. These include communications satellites like Starlink; space stations such as the ISS; scientific satellites like the Hubble; Earth observation satellites from companies like Planet Labs, Umbra, and HawkEye 360; GPS; miniature CubeSats for education and research; and military/defense satellites.

Loading next visibility...
Identifier
48641, 2021-044D
Orbit
LEO
Country
Flag of USUS
Related business
Manufacturer
SpaceX/Seattle
Mission
Operational Commercial Communications
Bus & Motor
STARLINK, Unknown motor
Mass
260 kg wet, ~248 kg dry
Launch date (UTC)
2021-05-26 (5 years ago)
Launch vehicle
FALCON 9
Launch site
Air Force Eastern Test Range (AFETR)
Object type
Payload
Rocket body
Debris
Shape & HBR
Box + 1 Pan, 10.1 m
Radar Cross Section
13.562 m², Large (>1 m²)

Expand to show TLE details & history
Last TLE update: 2 days ago

TLE from 2 days ago
0 STARLINK-2754
1 48641U 21044D   26171.22045801  .00000832  00000-0  38581-4 0  9995
2 48641  53.1623 357.0959 0001378  82.8728 277.2431 15.31708288279532
Epoch: 2026-06-20T05:17Z
TLE epoch observation values (Epoch: 2026-06-20T05:17:27.572Z)
Latitude
0.00007°
Longitude
9.29286°
Altitude
471.497 km
Speed
7.632 km/s
True Right ascension
23h 48m 23s
True Declination
0° 00' 00"
Sunlit
Object was in daylight at epoch
Visualization orbit readout
Latitude
Unknown
Longitude
Unknown
Altitude
Unknown
Speed
Unknown
Apparent Right ascension
Unknown
Apparent Declination
Unknown
Sunlit
N/A
Visualization observer readout
Local Sidereal Time
21:36:55
Azimuth
Unknown
Elevation
Unknown
Doppler factor
Unknown
Orbital elements
Apogee altitude
471.915 km
Perigee altitude
470.028 km
Semi-major axis
6,849.109 km
Eccentricity
0.00014
Inclination
53.1623°
RAAN
357.0959°
Arg. of periapsis
82.8728°
True anomaly
277.22743°
Mean anomaly
277.2431°
Eccentric anomaly
277.23527°
Mean motion
3.82906 °/min
Orbital period
94.02 mins
BSTAR
0.000038581
Loading maneuver chart data...
Computing Atmospheric mass density...

Documentation

Showing up to 5 results
|